Torna al catalogo

DMSP 5D-2 F13 DEB

AttivoSSO
NORAD 42320·DEBRIS·🇺🇸 United States

Lanciato Mar 24, 1995 da Vandenberg Space Force Base

Loading…

Prossimi Passaggi (prossime 24 ore)

TLE

AggiornatoSource: Space-Track

Epoca: Sep 14, 2026, 21:06 UTC

1 42320U 95015JN  26257.87923337  .00003674  00000-0  10487-2 0  9997
2 42320  98.6244 302.9270 0005158 338.1125  21.9845 14.45772287595141

Traccia DMSP 5D-2 F13 DEB in tempo reale con AllMySat

Download on the App Store